Temperature
22 22 21 21 21 20 20 20 20 20 19 19 19 19 19 18 18 18 18 18 18 18 18 18 18 18 18 18 18 18 18 18 18 18 17 17 17 17 17 17 17 17 17
22 21 21 21 21 20 20 20 20 20 19 19 19 19 19 18 18 18 18 18 18 18 18 18 18 18 18 18 18 18 18 18 18 17 17 17 17 17 17 17 17 17 17
22 21 21 21 21 20 20 20 20 20 19 19 19 19 18 18 18 18 18 18 18 18 18 17 17 17 17 17 17 17 17 17 18 17 17 17 17 17 17 17 17 17 17
22 21 21 21 21 21 20 20 20 20 19 19 19 19 19 18 18 18 18 18 18 18 17 17 17 17 17 17 17 17 17 17 17 17 17 17 17 17 17 17 17 17 17
22 22 21 21 21 21 21 20 20 20 19 19 19 19 18 18 18 18 18 17 17 17 17 17 17 17 17 17 17 17 17 17 17 17 17 17 17 17 16 16 17 17 17
22 22 22 21 21 21 20 20 20 19 19 19 19 19 18 18 18 18 17 17 17 17 17 17 17 17 17 17 16 16 16 16 16 16 16 16 16 16 16 16 16 16 17
22 22 21 21 21 21 20 20 20 20 19 19 19 19 18 18 18 18 17 17 17 17 17 17 17 16 16 16 16 16 16 16 16 16 16 16 16 16 16 16 16 16 16
22 22 22 21 21 21 21 20 20 20 19 19 19 18 18 18 18 17 17 17 17 17 17 16 16 16 16 16 16 16 16 16 16 16 16 16 15 15 15 15 16 15 15
22 22 22 21 21 21 21 21 20 20 19 19 19 18 18 18 18 17 17 17 17 17 16 16 16 16 16 16 16 16 15 15 15 15 15 15 15 15 15 15 15 15 15
22 22 22 21 21 21 21 20 20 20 19 19 19 18 18 18 18 17 17 17 17 16 16 16 16 16 16 15 15 15 15 15 15 15 15 15 15 15 15 15 15 15 15
22 21 21 21 21 21 20 20 20 19 19 19 19 18 18 18 17 17 17 17 16 16 16 16 16 16 16 15 15 15 15 15 15 15 15 15 15 15 15 15 15 14 14
22 21 21 21 21 20 20 20 20 19 19 19 19 18 18 17 17 17 17 16 16 16 16 16 16 16 15 15 15 15 15 15 14 14 14 14 14 14 14 14 14 14 14
21 21 21 21 21 20 20 20 19 19 19 18 18 18 17 17 17 16 16 16 16 16 16 16 15 15 15 15 15 15 14 14 14 14 14 14 14 14 14 14 14 14 14
21 21 21 20 20 20 20 19 19 19 18 18 18 17 17 17 16 16 16 16 15 15 15 15 15 15 15 15 14 14 14 14 14 14 14 14 14 14 14 14 14 14 13
20 21 20 20 20 19 19 19 19 18 18 18 17 17 17 16 16 16 16 15 15 15 15 15 15 15 15 14 14 14 14 14 14 14 13 13 13 13 13 13 13 13 13
20 20 20 20 19 19 19 18 18 18 18 17 17 17 16 16 16 16 16 15 15 15 15 15 15 14 14 14 14 14 14 14 14 13 13 13 13 13 13 13 13 13 13
20 20 20 19 19 19 18 18 18 17 17 17 17 16 16 16 16 16 15 15 15 15 15 14 14 14 14 14 14 14 14 13 13 13 13 13 13 13 13 13 13 13 13
20 20 20 19 19 19 18 18 17 17 17 17 16 16 16 16 15 15 15 15 15 14 14 14 14 14 14 13 13 13 13 13 13 13 13 13 13 13 12 13 13 13 12
20 20 19 19 19 18 18 17 17 17 17 16 16 16 16 15 15 15 15 14 14 14 14 14 14 14 13 13 13 13 13 13 13 13 12 12 12 12 12 12 12 12 12
20 20 19 19 18 18 18 17 17 16 16 16 16 16 15 15 15 14 14 14 14 14 14 13 13 13 13 13 13 13 13 13 13 12 12 12 12 12 12 12 12 12 12
19 19 19 18 18 18 17 17 17 16 16 16 16 15 15 15 15 14 14 14 14 14 14 13 13 13 13 13 13 13 12 12 12 12 12 12 12 12 12 12 12 12 12
19 19 18 18 18 17 17 17 16 16 16 16 15 15 15 14 14 14 14 14 14 13 13 13 13 13 13 12 12 12 12 12 12 12 12 11 11 11 12 12 11 11 11
18 18 18 18 17 17 17 16 16 16 15 15 15 15 15 14 14 14 14 14 13 13 13 13 13 13 12 12 12 12 12 12 11 11 11 11 11 11 11 11 11 11 11
18 18 17 17 17 16 16 16 16 15 15 15 15 14 14 14 14 14 14 13 13 13 13 13 13 12 12 12 12 12 12 11 11 11 11 11 11 11 11 11 11 11 11
18 17 17 16 16 16 16 16 15 15 14 14 14 14 14 14 14 14 13 13 13 13 13 13 13 12 12 12 12 12 11 11 11 11 11 11 11 11 11 11 11 11 10
17 17 16 16 16 16 16 15 15 15 14 14 14 14 14 14 13 13 13 13 13 13 13 12 12 12 12 12 11 11 11 11 11 11 11 11 10 10 10 10 10 10 10
Wind_Speed
8 8 9 9 8 6 5 4 5 3 3 2 2 2 1 1 1 1 2 2 2 3 3 2 2 2 2 1 1 1 1 1 1 2 2 2 1 1 2 2 2 3 5
7 8 8 8 8 7 5 5 4 4 3 3 2 2 2 1 1 1 2 2 2 2 2 2 2 2 2 2 2 1 1 1 1 2 1 2 3 2 1 1 2 3 3
11 9 9 8 8 7 7 6 5 4 4 3 3 3 2 2 2 1 1 1 2 3 3 2 2 2 2 1 1 1 2 0 1 1 3 2 2 2 3 2 2 2 3
10 10 10 9 9 9 7 6 5 5 4 4 4 4 3 2 1 1 1 1 2 2 2 2 2 2 2 1 1 1 1 2 0 1 0 2 3 2 2 3 2 2 3
12 12 12 11 10 8 7 6 5 4 4 4 4 4 3 2 1 1 2 1 1 1 1 2 1 2 1 1 1 1 2 1 1 0 1 0 0 1 2 2 3 3 2
11 11 11 9 8 7 7 6 6 4 4 4 4 4 4 3 3 2 2 0 0 1 1 1 1 1 1 1 1 1 1 1 1 1 1 1 0 1 1 2 3 3 3
9 9 10 9 9 9 8 7 7 5 4 4 4 4 4 4 4 3 2 1 0 0 1 0 0 0 1 1 1 1 1 1 1 1 0 0 1 1 1 1 2 2 3
9 9 10 10 10 10 9 8 7 6 5 4 3 3 3 3 3 3 3 2 1 1 0 0 0 0 1 1 1 1 0 0 0 0 0 0 1 0 1 1 1 1 2
10 9 9 9 9 9 9 9 8 6 5 5 3 3 3 3 3 3 2 2 1 1 1 1 1 1 1 1 1 1 0 0 0 1 1 1 1 1 0 1 2 2 2
9 8 8 8 8 7 7 7 7 6 5 4 4 4 2 2 2 3 2 2 1 1 1 1 2 1 1 1 1 1 1 1 1 0 1 1 2 1 1 1 1 2 3
8 8 7 7 8 7 7 6 6 6 5 4 3 3 3 2 2 2 2 2 1 2 2 1 1 1 1 1 1 0 1 1 1 1 1 2 1 1 2 1 1 1 2
8 7 7 7 7 7 7 7 6 6 6 5 5 4 3 3 3 2 1 2 2 2 2 1 1 1 0 0 1 1 0 0 1 1 1 2 2 1 2 1 1 2 2
8 7 6 6 6 6 6 6 6 6 5 5 5 4 3 3 3 2 1 1 2 1 1 1 1 1 1 1 1 1 1 1 1 2 2 3 2 2 2 2 2 2 2
8 8 6 5 4 5 5 6 5 5 5 5 5 4 3 2 2 2 2 2 2 1 1 1 0 1 1 1 1 1 1 1 1 2 2 3 3 3 3 2 2 2 1
8 8 7 6 5 5 5 6 5 5 5 5 4 3 2 2 2 2 2 2 2 2 1 2 2 1 0 1 0 1 1 1 2 2 2 3 3 3 3 2 3 2 2
9 8 8 8 7 7 6 6 5 5 5 5 4 3 3 2 2 2 2 2 1 1 2 2 1 2 1 1 1 0 1 1 2 3 3 3 3 4 4 3 2 2 3
10 9 8 8 7 7 7 7 6 5 5 5 4 3 3 2 2 2 2 2 1 1 1 1 1 1 2 2 2 1 0 1 2 2 2 3 3 3 2 3 3 3 3
9 8 8 7 6 6 6 6 5 5 5 4 3 3 3 2 2 1 1 1 1 1 1 1 0 0 2 3 2 2 1 1 2 2 2 2 3 3 2 2 2 3 4
7 7 7 7 6 6 6 6 5 5 5 4 4 4 3 3 2 2 2 2 1 1 1 1 1 0 2 3 3 3 1 1 2 3 2 2 3 4 3 1 2 4 5
6 6 6 7 6 5 6 6 5 4 4 4 4 4 4 4 4 3 2 2 2 2 1 1 1 0 1 3 4 3 1 1 2 3 3 4 4 5 3 1 2 4 6
7 7 7 6 5 6 7 6 4 4 4 3 3 3 3 4 4 3 2 2 2 1 1 1 1 1 0 2 3 3 1 0 1 2 3 4 6 5 5 3 3 6 5
6 7 6 4 4 5 7 5 4 4 3 3 3 3 3 3 3 3 2 2 2 1 1 0 1 2 1 1 2 2 2 1 1 3 4 4 6 6 6 4 5 6 4
5 5 6 5 3 4 6 6 5 4 3 2 2 3 3 2 2 3 3 2 2 2 2 1 2 2 2 2 3 3 4 3 2 3 5 6 6 6 5 5 6 4 2
5 5 5 5 3 3 4 5 4 4 4 3 2 2 2 2 2 2 3 3 3 2 2 2 3 2 2 2 2 2 3 4 3 3 5 6 6 5 4 5 4 2 1
4 5 5 4 4 3 3 3 4 4 4 2 2 2 2 3 2 1 2 3 4 5 5 4 3 2 3 5 4 2 2 2 2 2 2 2 3 4 4 4 4 3 3
4 4 4 3 3 3 3 3 4 4 4 3 2 2 2 2 2 2 0 2 2 3 5 5 4 3 4 4 3 3 3 2 2 2 2 2 2 3 3 4 4 4 3
Wind_Direction
159 149 147 143 135 129 124 134 127 126 117 109 112 108 110 105 85 87 89 92 91 85 76 67 54 67 83 90 79 93 80 40 83 77 24 360 1 180 198 199 191 205 203
153 154 150 145 144 150 147 144 144 142 138 147 150 140 137 131 129 67 63 70 77 79 85 83 78 72 83 66 53 67 87 32 71 116 101 5 346 332 266 205 195 207 196
163 163 159 157 157 163 165 162 163 153 154 142 113 98 72 57 59 50 61 61 80 83 76 93 99 88 97 94 67 76 114 146 338 116 140 150 227 296 314 272 231 202 195
165 164 164 165 171 176 172 163 162 157 155 143 132 133 136 144 178 157 121 57 64 73 74 89 96 96 94 90 65 71 87 121 303 307 306 168 164 171 291 315 292 236 210
169 172 175 175 174 174 170 165 155 149 147 142 146 147 147 161 138 112 99 56 24 45 68 81 89 90 99 115 71 61 80 102 125 136 301 341 36 129 170 274 309 308 260
168 173 175 169 168 165 163 160 152 154 153 145 142 149 148 143 125 124 131 117 13 356 3 83 83 97 99 115 122 104 97 97 103 91 80 114 145 233 184 228 264 278 280
159 164 164 168 168 167 167 166 159 163 162 151 150 154 151 146 148 158 157 156 134 330 303 32 60 64 124 133 129 112 101 97 107 116 139 143 212 216 189 195 248 266 288
166 172 169 169 168 169 169 166 164 166 162 160 162 157 149 150 157 161 160 169 180 201 199 97 69 71 89 94 105 99 146 103 150 312 241 230 281 244 182 196 200 273 304
173 172 168 164 162 163 166 165 161 156 156 158 146 140 147 145 152 152 142 144 145 127 85 82 72 52 63 73 89 75 7 26 268 274 294 302 289 281 266 212 188 186 237
169 163 160 157 157 159 158 157 156 158 152 140 140 141 142 144 145 131 123 118 117 110 93 76 72 69 68 64 85 74 27 46 342 326 352 317 297 301 310 294 255 200 195
163 154 150 149 147 142 143 149 153 144 140 144 139 130 124 122 123 126 130 136 133 128 119 104 94 85 77 83 92 53 50 63 359 346 346 299 295 308 311 310 294 248 199
148 142 143 143 141 141 141 145 148 145 150 145 135 131 121 111 107 110 119 132 146 156 159 151 138 129 53 74 150 242 304 208 281 288 293 295 301 305 291 283 283 264 223
133 128 133 145 150 148 149 147 144 144 142 132 127 121 113 110 117 125 122 119 124 129 141 143 164 218 242 239 215 203 240 241 254 268 259 265 277 286 279 271 274 278 277
132 128 128 132 130 135 139 138 135 135 135 131 130 132 134 139 144 133 115 103 106 98 70 76 196 234 242 240 218 195 215 260 279 279 263 258 250 249 255 259 253 254 271
140 140 145 142 137 130 130 130 130 128 128 123 129 139 153 150 137 131 119 109 109 100 89 60 37 9 340 283 232 202 206 235 275 288 280 272 271 267 257 256 236 222 218
157 152 149 146 146 144 143 142 138 133 129 132 139 146 141 136 146 152 143 130 119 104 87 70 46 20 356 357 357 184 236 261 267 280 290 292 289 294 286 287 268 216 207
157 156 157 154 149 150 151 155 153 144 139 142 145 147 143 136 151 160 143 172 170 126 109 97 68 4 338 360 8 9 199 260 266 264 281 304 323 333 302 311 323 300 274
163 163 159 156 154 151 151 147 141 139 134 136 144 152 150 152 158 157 173 193 168 148 179 204 203 336 333 356 6 15 19 328 301 275 255 267 303 313 299 303 313 294 288
161 159 157 152 151 155 152 141 136 139 139 151 165 173 173 168 175 191 209 205 173 173 207 213 205 315 328 1 24 42 34 345 316 306 297 278 288 298 305 312 293 300 304
144 143 141 135 146 159 146 138 145 151 167 181 187 184 179 182 194 204 208 196 176 204 205 224 249 238 338 8 28 44 64 358 326 325 321 313 305 306 315 292 275 287 292
137 130 130 138 159 161 147 148 157 181 192 185 179 179 183 190 195 194 193 193 188 189 194 200 256 246 289 3 27 41 74 263 303 317 311 304 311 311 305 293 269 268 277
123 122 124 134 159 157 150 154 177 194 180 166 165 179 187 198 188 187 204 201 171 164 192 192 302 297 294 321 339 351 334 315 256 278 285 297 312 316 313 303 288 291 298
128 126 133 133 143 159 157 168 184 168 155 157 182 200 195 203 192 188 194 194 182 182 211 208 243 279 292 298 313 325 320 321 307 281 293 305 309 313 314 309 308 319 326
132 127 124 129 145 171 168 174 174 163 157 175 204 203 190 203 186 186 186 184 191 194 205 215 235 258 280 289 311 321 318 329 330 321 319 320 319 324 318 324 331 333 313
139 138 142 156 173 165 165 165 154 148 153 176 196 196 196 189 183 188 204 200 209 199 191 205 206 215 261 267 263 259 284 294 299 326 344 356 356 351 348 346 343 344 352
134 136 144 155 169 159 161 163 154 150 153 169 194 195 197 186 174 169 357 335 258 223 200 196 193 219 232 267 288 296 303 311 1 53 4 343 341 333 335 339 337 336 336
Height
1508 1509 1510 1511 1512 1514 1514 1515 1515 1516 1517 1517 1517 1517 1517 1517 1517 1517 1516 1516 1515 1515 1515 1515 1515 1515 1515 1515 1515 1515 1515 1515 1516 1516 1516 1516 1516 1517 1517 1517 1517 1517 1518
1508 1509 1510 1511 1512 1513 1514 1515 1516 1516 1517 1517 1518 1518 1518 1517 1517 1517 1516 1516 1516 1515 1515 1514 1514 1514 1514 1514 1514 1514 1514 1514 1515 1515 1515 1515 1516 1515 1515 1516 1516 1516 1516
1506 1508 1510 1511 1511 1512 1513 1515 1515 1516 1517 1517 1518 1518 1517 1517 1517 1516 1516 1516 1515 1515 1514 1514 1514 1513 1513 1513 1513 1513 1513 1513 1514 1514 1515 1514 1514 1514 1514 1514 1514 1514 1514
1505 1507 1509 1510 1510 1511 1513 1514 1515 1516 1516 1517 1517 1517 1517 1516 1517 1516 1516 1515 1515 1515 1514 1513 1513 1512 1512 1512 1512 1512 1512 1512 1512 1512 1513 1513 1513 1513 1512 1512 1512 1512 1512
1503 1506 1507 1508 1509 1511 1512 1514 1515 1516 1516 1516 1516 1516 1516 1516 1516 1516 1515 1515 1514 1514 1513 1513 1512 1511 1511 1511 1511 1511 1511 1511 1511 1511 1511 1511 1511 1511 1511 1510 1510 1510 1510
1501 1504 1506 1507 1509 1511 1512 1513 1514 1515 1515 1516 1516 1515 1515 1515 1515 1515 1514 1514 1513 1513 1512 1512 1511 1510 1510 1510 1510 1510 1510 1510 1510 1510 1510 1509 1509 1509 1509 1508 1508 1508 1508
1500 1502 1504 1506 1507 1509 1511 1512 1513 1513 1514 1515 1515 1515 1514 1514 1514 1514 1513 1513 1512 1512 1511 1511 1510 1509 1509 1509 1509 1508 1508 1508 1508 1508 1508 1508 1508 1507 1507 1507 1506 1505 1505
1498 1499 1502 1504 1505 1508 1510 1511 1512 1512 1513 1513 1514 1514 1514 1513 1513 1513 1512 1512 1511 1511 1510 1510 1509 1508 1508 1508 1507 1507 1507 1507 1506 1506 1506 1506 1506 1506 1505 1505 1504 1503 1503
1496 1498 1500 1503 1505 1507 1508 1509 1510 1511 1511 1512 1512 1513 1513 1512 1512 1512 1511 1511 1510 1510 1509 1509 1508 1507 1507 1506 1506 1505 1505 1505 1504 1504 1504 1504 1504 1503 1503 1502 1502 1502 1501
1494 1496 1499 1501 1504 1506 1507 1509 1509 1510 1510 1510 1511 1511 1512 1511 1511 1511 1510 1510 1509 1509 1508 1507 1507 1506 1505 1505 1504 1504 1503 1503 1502 1502 1502 1502 1501 1501 1500 1500 1500 1499 1499
1494 1496 1499 1501 1503 1505 1506 1507 1508 1509 1509 1509 1510 1510 1510 1510 1510 1509 1509 1509 1508 1508 1507 1506 1505 1504 1504 1503 1503 1502 1501 1501 1500 1500 1500 1499 1499 1498 1498 1498 1497 1497 1496
1494 1496 1498 1500 1501 1503 1504 1505 1506 1507 1507 1508 1508 1508 1508 1508 1508 1507 1507 1507 1507 1506 1506 1505 1504 1503 1502 1501 1501 1500 1499 1499 1498 1498 1497 1497 1497 1496 1495 1495 1494 1494 1493
1492 1494 1496 1498 1500 1502 1503 1504 1505 1506 1507 1507 1507 1507 1506 1507 1507 1506 1506 1506 1505 1505 1504 1503 1502 1501 1500 1499 1498 1498 1497 1496 1496 1495 1495 1494 1494 1493 1492 1492 1491 1491 1490
1490 1493 1495 1497 1498 1500 1502 1503 1504 1505 1506 1506 1506 1506 1506 1506 1506 1506 1505 1505 1504 1503 1502 1501 1500 1499 1499 1498 1497 1496 1495 1494 1493 1493 1492 1492 1491 1490 1489 1489 1488 1488 1487
1490 1492 1494 1495 1497 1499 1501 1502 1503 1504 1504 1505 1505 1505 1506 1505 1505 1505 1504 1503 1503 1502 1501 1500 1498 1498 1497 1496 1495 1494 1493 1492 1491 1491 1490 1489 1488 1488 1487 1486 1485 1485 1484
1488 1490 1492 1493 1495 1497 1499 1500 1501 1502 1503 1503 1504 1504 1504 1504 1504 1503 1503 1502 1501 1500 1499 1498 1497 1496 1495 1493 1492 1491 1491 1490 1489 1488 1488 1487 1486 1485 1484 1484 1483 1482 1481
1487 1489 1490 1492 1494 1496 1498 1499 1500 1501 1502 1501 1502 1502 1502 1502 1502 1502 1501 1500 1499 1498 1497 1496 1495 1494 1493 1492 1491 1490 1489 1488 1487 1486 1485 1485 1484 1483 1482 1481 1480 1479 1478
1485 1487 1489 1491 1493 1494 1496 1498 1499 1499 1499 1499 1500 1500 1500 1500 1500 1500 1499 1499 1498 1497 1496 1495 1494 1492 1491 1490 1489 1488 1487 1486 1485 1484 1483 1483 1482 1480 1479 1478 1476 1476 1475
1484 1486 1487 1490 1492 1493 1494 1495 1496 1496 1497 1497 1498 1498 1498 1498 1498 1498 1497 1497 1496 1495 1494 1493 1492 1491 1490 1489 1488 1487 1485 1484 1483 1483 1482 1480 1479 1478 1477 1475 1473 1472 1471
1482 1484 1487 1489 1490 1491 1493 1493 1494 1494 1494 1494 1495 1496 1496 1496 1496 1496 1496 1495 1495 1494 1493 1492 1491 1490 1489 1488 1487 1485 1484 1483 1482 1481 1480 1478 1477 1475 1474 1472 1471 1469 1468
1482 1483 1486 1487 1489 1490 1491 1491 1491 1491 1492 1492 1493 1493 1494 1494 1494 1494 1494 1493 1493 1493 1492 1490 1490 1489 1487 1486 1485 1484 1482 1481 1480 1479 1477 1476 1475 1473 1471 1470 1468 1467 1466
1482 1483 1485 1486 1487 1488 1489 1489 1489 1490 1490 1490 1490 1491 1492 1492 1492 1492 1492 1492 1491 1491 1490 1489 1488 1487 1486 1485 1484 1483 1481 1480 1478 1477 1476 1474 1473 1471 1469 1467 1466 1465 1463
1481 1482 1483 1484 1486 1486 1486 1487 1487 1487 1488 1488 1488 1489 1489 1490 1490 1490 1490 1489 1489 1488 1488 1487 1486 1485 1484 1483 1483 1481 1480 1478 1476 1475 1474 1473 1471 1469 1467 1465 1464 1462 1460
1481 1482 1483 1483 1484 1485 1485 1485 1485 1485 1484 1485 1486 1486 1486 1487 1487 1487 1487 1487 1487 1486 1486 1485 1484 1483 1482 1481 1480 1479 1477 1476 1475 1473 1472 1471 1469 1467 1465 1463 1461 1460 1458
1480 1481 1481 1482 1482 1483 1483 1483 1483 1482 1482 1483 1483 1484 1484 1484 1484 1484 1485 1485 1485 1484 1484 1483 1482 1480 1479 1479 1478 1477 1475 1474 1473 1471 1470 1468 1466 1465 1463 1461 1460 1458 1457
1478 1479 1480 1480 1481 1481 1481 1481 1481 1481 1480 1480 1481 1481 1481 1482 1482 1482 1482 1482 1483 1482 1482 1481 1480 1479 1479 1477 1476 1475 1474 1473 1471 1470 1468 1466 1464 1463 1461 1459 1458 1456 1455